Regional Weather Roundup
Issued by NWS

Home | Current Version | Previous Version | Text Only | Print | Product List | Glossary Off
Versions: 1 2 3 4 5 6 7 8 9 10 11 12 13 14 15 16 17 18 19 20 21 22 23 24 25 26 27 28 29 30 31 32 33 34 35 36 37 38 39 40 41 42 43 44 45 46 47 48 49 50

000
ASUS43 KDMX 271307
RWRIA

WEATHER ROUNDUP FOR IOWA
NATIONAL WEATHER SERVICE DES MOINES IA
800 AM CDT SUN JUL 27 2014

NOTE: "FAIR" INDICATES FEW OR NO CLOUDS BELOW 12,000 FEET WITH NO
SIGNIFICANT WEATHER AND/OR OBSTRUCTIONS TO VISIBILITY.

* - THESE STATIONS ARE NOT NWS STATIONS...THUS NOT UNDER NWS
QUALITY CONTROL.  THEY ALSO DO NOT REPORT WEATHER SUCH
AS PRECIPITATION OR FOG.

IAZ001>003-012>014-020>022-031>034-043>046-271400-
   NORTHWEST IOWA

CITY           SKY/WX    TMP DP  RH WIND       PRES   REMARKS
CARROLL *      SUNNY     66  59  77 W9        29.98S
CHEROKEE *     SUNNY     64  57  77 NW10G16   30.00R
DENISON *      SUNNY     66  61  82 NW5       30.00R
LE MARS *      SUNNY     64  57  77 NW13      30.03R
ORANGE CITY *  SUNNY     64  57  77 W12       30.02R
SHELDON *      SUNNY     63  57  82 NW12G18   29.99R
SIOUX CITY     SUNNY     65  57  75 NW7       30.03R
SPENCER        SUNNY     64  57  78 NW14      29.97R
STORM LAKE *   SUNNY     63  61  94 NW14      30.00R
$$

IAZ055>058-069>071-079>083-090>094-271400-
   SOUTHWEST IOWA

CITY           SKY/WX    TMP DP  RH WIND       PRES   REMARKS
ATLANTIC *     SUNNY     70  61  73 NW8       30.00R
AUDUBON *      SUNNY     70  64  83 W6        30.02R
CLARINDA *     SUNNY     72  66  83 VRB6      30.03R
COUNCIL BLFS * SUNNY     68  64  88 NW5       30.03R
CRESTON *      SUNNY     68  64  88 NW9       30.00R
HARLAN  *      SUNNY     68  63  83 NW9       30.05R
LAMONI         SUNNY     71  65  81 NW7       29.98R
RED OAK *      SUNNY     70  66  88 NW6       30.03R
SHENANDOAH *   SUNNY     72  68  88 NW6       30.03R
$$

IAZ047>049-059>061-072>074-084-271400-
   CENTRAL IOWA

CITY           SKY/WX    TMP DP  RH WIND       PRES   REMARKS
AMES           SUNNY     67  62  84 W8        29.94R
ANKENY *       SUNNY     70  63  78 W12       29.94S
CHARITON *     SUNNY     70  66  88 NW10      29.96R
DES MOINES     SUNNY     72  62  71 NW7       29.94S
GRINNELL*      SUNNY     68  63  83 NW7       29.93R
KNOXVILLE *    SUNNY     70  64  83 NW10      29.93R
MARSHALLTOWN   SUNNY     68  63  84 W6        29.91R
PELLA *        SUNNY     72  64  78 NW7       29.94R
PERRY *          N/A     68  61  77 W7        29.97R
$$

IAZ004>006-015-016-023>025-035-036-271400-
   NORTH CENTRAL IOWA

CITY           SKY/WX    TMP DP  RH WIND       PRES   REMARKS
ALGONA *       SUNNY     64  59  82 NW10      29.95R
CLARION *      SUNNY     64  61  88 NW10      29.93R
ESTHERVILLE    SUNNY     63  56  78 NW15G24   29.95R
FORT DODGE *   SUNNY     64  57  77 W9        29.96R
MASON CITY     SUNNY     66  57  72 NW15G25   29.91R
FOREST CITY *  SUNNY     64  55  72 NE15G24   29.91R
IOWA FALLS *     N/A     66  61  82 W8        29.93R
$$

IAZ007>011-017>019-026>030-037>042-050>054-066-271400-
   NORTHEAST IOWA

CITY           SKY/WX    TMP DP  RH WIND       PRES   REMARKS
CEDAR RAPIDS   SUNNY     70  63  78 NW12      29.87R
CHARLES CITY * SUNNY     64  59  82 W12       29.88S
CLINTON *      SUNNY     70  68  94 W9        29.85R
DECORAH *      SUNNY     66  59  77 W12G20    29.83S
DUBUQUE        SUNNY     70  64  81 NW10      29.84R
MONTICELLO *   SUNNY     70  66  88 NW10      29.85R
OELWEIN *      SUNNY     68  63  83 NW12      29.87S
WATERLOO       SUNNY     68  59  73 NW12G21   29.87R
$$

IAZ064-065-067-068-078-271400-
   EAST CENTRAL IOWA

CITY           SKY/WX    TMP DP  RH WIND       PRES   REMARKS
DAVENPORT      SUNNY     70  68  93 W10       29.84S
IOWA CITY      SUNNY     72  65  78 NW14      29.88R
MT. PLEASANT * SUNNY     75  68  78 NW10      29.88R
MUSCATINE *    SUNNY     73  68  83 NW9G15    29.85S
QUAD CITIES    SUNNY     74  71  91 W8        29.83R FOG
$$

IAZ062-063-075>077-085>089-095>099-271400-
   SOUTHEAST IOWA

CITY           SKY/WX    TMP DP  RH WIND       PRES   REMARKS
BURLINGTON     SUNNY     75  72  90 NW8       29.86R
FAIRFIELD *    SUNNY     73  70  88 NW10      29.90R
FORT MADISON * SUNNY     75  75 100 W7        29.88R FOG
KEOKUK *       SUNNY     75  73  94 W6        29.87S
OSKALOOSA *      N/A     72  68  88 NW8       29.92R
CENTERVILLE *  SUNNY     72  72 100 NW8       29.95R
OTTUMWA        SUNNY     73  68  84 NW10      29.91R
WASHINGTON *   SUNNY     72  70  94 NW9       29.88S
$$

ABBREVIATIONS USED IN REMARKS
   TC - TEMPERATURES IN CELSIUS
  WCI - WIND CHILL INDEX
   HX - HEAT INDEX
  VSB - VISIBILITY
$$



USA.gov is the U.S. government's official web portal to all federal, state and local government web resources and services.